Regional Weather Roundup
Issued by NWS

Home | Current Version | Previous Version | Graphics & Text | Print | Product List | Glossary On
Versions: 1 2 3 4 5 6 7 8 9 10 11 12 13 14 15 16 17 18 19 20 21 22 23 24 25 26 27 28 29 30 31 32 33 34 35 36 37 38 39 40 41 42 43 44 45 46 47 48 49 50
000
ASUS45 KABQ 261301
RWRNM
NEW MEXICO REGIONAL WEATHER ROUNDUP
NATIONAL WEATHER SERVICE ALBUQUERQUE NM
700 AM MDT THU APR 26 2018

NOTE: "FAIR" MEANS FEW OR NO CLOUDS BELOW 12,000 FEET AGL WITH NO
       SIGNIFICANT WEATHER OR OBSTRUCTIONS TO VISION.

      THIS PRODUCT IS RELEASED AS TWO VERSIONS.  ONE VERSION NEAR
      THE TOP OF THE HOUR CONTAINING PRELIMINARY DATA FROM ALBUQUERQUE
      AND OTHER STATIONS.  A FINAL VERSION WITH ADDITIONAL DATA IS
      ISSUED ABOUT 10 MINUTES AFTER THE HOUR.

NMZ501-503-504-510>518-261400-
NORTHWEST PLATEAU/NORTHCENTRAL MOUNTAINS

CITY           SKY/WX    TMP DP  RH WIND       PRES   REMARKS
FARMINGTON     FAIR      36  -3  19 CALM      30.10R
LOS ALAMOS     FAIR      46  14  27 CALM      30.15R
SANTA FE       FAIR      37  27  67 N8        30.10R WCI  31
TAOS           FAIR      31  19  61 NE9       30.18R WCI  23
ANGEL FIRE     FAIR      21  16  80 CALM      30.20R

$$
NMZ402-403-502-505>509-261400-
WESTCENTRAL MOUNTAINS/SOUTHWEST MOUNTAINS

CITY           SKY/WX    TMP DP  RH WIND       PRES   REMARKS
GALLUP         FAIR      34   2  25 E5        30.19R WCI  30
GRANTS         FAIR      32   0  25 NW8       30.19R WCI  25
SILVER CITY    FAIR      44  28  53 N6        30.11S

$$
NMZ407-409-411-412-261400-
SOUTHERN DESERTS

CITY           SKY/WX    TMP DP  RH WIND       PRES   REMARKS
DEMING         FAIR      48  34  58 N6        30.07R
LAS CRUCES     FAIR      52  37  57 S5        30.09R
HOLLOMAN AFB   FAIR      45  33  61 N3        30.11R
ALAMOGORDO     FAIR      46  34  61 N8        30.09R
T OR C         FAIR      52  28  39 W7        30.09R

$$
NMZ519>523-261400-
CENTRAL VALLEYS/CENTRAL HIGHLANDS

CITY           SKY/WX    TMP DP  RH WIND       PRES   REMARKS
ALBUQUERQUE    FAIR      47  28  47 SE7       30.10R
DOUBLE EAGLE   CLEAR     39   7  26 N3        30.12R
MORIARTY ARPT  FAIR      37  29  74 SW9       30.11R WCI  30
CLINES CORNERS FAIR      41  28  60 W14       30.12R
BELEN          FAIR      42  24  48 CALM      30.10R
SOCORRO        FAIR      48  32  54 S6        30.09R

$$
NMZ524>526-539-540-261400-
SOUTHCENTRAL MOUNTAINS

CITY           SKY/WX    TMP DP  RH WIND       PRES   REMARKS
RUIDOSO        FAIR      46  32  57 W10       30.16R

$$
NMZ527>531-261400-
NORTHEAST HIGHLANDS/NORTHEAST PLAINS

CITY           SKY/WX    TMP DP  RH WIND       PRES   REMARKS
LAS VEGAS      FAIR      33  28  81 NE6       30.09R WCI  28
RATON          FAIR      35  26  69 NE8       30.06R WCI  29
CLAYTON        FAIR      48  34  58 W16       29.96R

$$
NMZ532>537-261400-
EASTCENTRAL PLAINS

CITY           SKY/WX    TMP DP  RH WIND       PRES   REMARKS
SANTA ROSA     FAIR      41  32  69 S5        30.03R
TUCUMCARI      FAIR      46  36  68 CALM      29.97R
CANNON AFB     FAIR      44  41  90 W7        30.04R
CLOVIS AIRPORT FAIR      45  36  70 SW13      30.03R

$$
NMZ028-029-538-261400-
SOUTHEAST PLAINS

CITY           SKY/WX    TMP DP  RH WIND       PRES   REMARKS
ROSWELL        FAIR      44  35  70 SE5       30.01S
ARTESIA        FAIR      45  34  65 SE6       30.03S
CARLSBAD       FAIR      44  35  70 SE6       30.02F
HOBBS          CLEAR     41  37  87 S5        30.06S


$$




USA.gov is the U.S. government's official web portal to all federal, state and local government web resources and services.